"read_dt","SO2 (ppb)","flags","PMT voltage (V)","lamp voltage (V)","lamp intensity (Hz)","internal temp (C)","react chamber temp (C)","sample flow (l/min)","pres (mmHg)","SO2 bkg (ppb)","SO2 coefficient"
2014-06-02 00:00:00,1863E-3,5C000000,-0724,0846,11919,026.2,045.5,0.490,735.9,01.18,0.508
2014-06-02 00:01:00,1780E-3,5C000000,-0724,0846,11979,026.2,045.5,0.489,735.9,01.18,0.508
2014-06-02 00:02:00,1833E-3,5C000000,-0724,0847,11880,026.2,045.4,0.489,735.8,01.18,0.508
2014-06-02 00:03:00,1918E-3,5C000000,-0724,0846,12068,026.2,045.5,0.490,735.8,01.18,0.508
2014-06-02 00:04:00,1924E-3,5C000000,-0724,0847,12140,026.3,045.5,0.489,735.9,01.18,0.508
2014-06-02 00:05:00,1801E-3,5C000000,-0724,0847,11720,026.3,045.4,0.489,735.9,01.18,0.508
2014-06-02 00:06:00,1689E-3,5C000000,-0724,0847,12053,026.3,045.5,0.489,735.8,01.18,0.508
2014-06-02 00:07:00,1781E-3,5C000000,-0724,0846,11909,026.3,045.5,0.489,735.8,01.18,0.508
2014-06-02 00:08:00,1711E-3,5C000000,-0724,0848,12243,026.3,045.4,0.490,735.8,01.18,0.508
2014-06-02 00:09:00,1755E-3,5C000000,-0724,0847,11927,026.3,045.4,0.489,735.8,01.18,0.508
2014-06-02 00:10:00,1754E-3,5C000000,-0724,0847,12000,026.3,045.5,0.489,735.8,01.18,0.508
2014-06-02 00:11:00,1815E-3,5C000000,-0724,0847,12035,026.3,045.5,0.489,735.8,01.18,0.508
2014-06-02 00:12:00,1962E-3,5C000000,-0724,0847,12174,026.3,045.5,0.489,735.8,01.18,0.508
2014-06-02 00:13:00,1804E-3,5C000000,-0724,0848,12112,026.3,045.4,0.490,735.8,01.18,0.508
2014-06-02 00:14:00,1737E-3,5C000000,-0724,0848,11940,026.3,045.4,0.489,735.8,01.18,0.508
2014-06-02 00:15:00,1697E-3,5C000000,-0724,0848,12096,026.3,045.5,0.489,735.8,01.18,0.508
2014-06-02 00:16:00,1875E-3,5C000000,-0724,0847,11931,026.3,045.5,0.489,735.8,01.18,0.508
2014-06-02 00:17:00,1881E-3,5C000000,-0724,0846,12048,026.3,045.4,0.489,735.8,01.18,0.508
2014-06-02 00:18:00,1895E-3,5C000000,-0724,0847,11987,026.3,045.5,0.489,735.8,01.18,0.508
2014-06-02 00:19:00,1894E-3,5C000000,-0724,0847,12058,026.3,045.5,0.489,735.8,01.18,0.508
2014-06-02 00:20:00,1954E-3,5C000000,-0724,0847,11993,026.4,045.4,0.489,735.8,01.18,0.508
2014-06-02 00:21:00,1769E-3,5C000000,-0724,0846,12071,026.4,045.5,0.490,735.8,01.18,0.508
2014-06-02 00:22:00,1819E-3,5C000000,-0724,0846,12031,026.4,045.5,0.489,735.8,01.18,0.508
2014-06-02 00:23:00,1927E-3,5C000000,-0724,0846,12068,026.4,045.5,0.489,735.8,01.18,0.508
2014-06-02 00:24:00,1758E-3,5C000000,-0724,0847,11829,026.4,045.4,0.489,735.8,01.18,0.508
2014-06-02 00:25:00,1889E-3,5C000000,-0724,0847,11904,026.4,045.4,0.489,735.9,01.18,0.508
2014-06-02 00:26:00,1865E-3,5C000000,-0724,0846,12017,026.4,045.5,0.489,735.8,01.18,0.508
2014-06-02 00:27:00,1831E-3,5C000000,-0724,0847,12087,026.4,045.5,0.489,735.8,01.18,0.508
2014-06-02 00:28:00,1810E-3,5C000000,-0724,0847,12057,026.4,045.5,0.489,735.8,01.18,0.508
2014-06-02 00:29:00,1763E-3,5C000000,-0724,0848,12193,026.4,045.5,0.489,735.8,01.18,0.508
2014-06-02 00:30:00,1855E-3,5C000000,-0724,0846,12108,026.4,045.5,0.489,735.8,01.18,0.508
2014-06-02 00:31:00,1884E-3,5C000000,-0724,0847,12140,026.4,045.5,0.489,735.8,01.18,0.508
2014-06-02 00:32:00,1854E-3,5C000000,-0724,0847,12061,026.4,045.5,0.490,735.9,01.18,0.508
2014-06-02 00:33:00,1814E-3,5C000000,-0724,0847,12103,026.4,045.4,0.489,735.9,01.18,0.508
2014-06-02 00:34:00,1902E-3,5C000000,-0724,0847,12169,026.4,045.5,0.489,735.9,01.18,0.508
2014-06-02 00:35:00,1751E-3,5C000000,-0724,0846,11725,026.4,045.5,0.489,735.8,01.18,0.508
2014-06-02 00:36:00,1741E-3,5C000000,-0724,0847,12107,026.4,045.5,0.489,735.9,01.18,0.508
2014-06-02 00:37:00,1887E-3,5C000000,-0724,0847,11984,026.5,045.4,0.489,735.9,01.18,0.508
2014-06-02 00:38:00,1737E-3,5C000000,-0724,0846,12085,026.5,045.5,0.489,735.9,01.18,0.508
2014-06-02 00:39:00,1812E-3,5C000000,-0724,0848,12069,026.5,045.5,0.489,735.9,01.18,0.508
2014-06-02 00:40:00,1787E-3,5C000000,-0724,0847,12094,026.5,045.4,0.489,735.8,01.18,0.508
2014-06-02 00:41:00,1827E-3,5C000000,-0724,0847,12205,026.5,045.4,0.489,735.8,01.18,0.508
2014-06-02 00:42:00,1776E-3,5C000000,-0724,0847,12004,026.5,045.4,0.489,735.8,01.18,0.508
2014-06-02 00:43:00,1805E-3,5C000000,-0724,0847,12079,026.5,045.5,0.489,735.8,01.18,0.508
2014-06-02 00:44:00,1883E-3,5C000000,-0724,0846,11820,026.5,045.5,0.489,735.8,01.18,0.508
2014-06-02 00:45:00,1890E-3,5C000000,-0724,0847,12099,026.5,045.4,0.489,735.8,01.18,0.508
2014-06-02 00:46:00,1682E-3,5C000000,-0724,0846,12050,026.5,045.4,0.489,735.8,01.18,0.508
2014-06-02 00:47:00,1805E-3,5C000000,-0724,0846,12131,026.5,045.5,0.489,735.8,01.18,0.508
2014-06-02 00:48:00,1703E-3,5C000000,-0724,0847,12038,026.5,045.5,0.489,735.9,01.18,0.508
2014-06-02 00:49:00,1754E-3,5C000000,-0724,0847,12027,026.5,045.5,0.489,735.8,01.18,0.508
2014-06-02 00:50:00,1776E-3,5C000000,-0724,0847,12041,026.5,045.5,0.489,735.9,01.18,0.508
2014-06-02 00:51:00,1803E-3,5C000000,-0724,0847,11952,026.5,045.5,0.489,735.8,01.18,0.508
2014-06-02 00:52:00,1733E-3,5C000000,-0724,0846,12042,026.5,045.4,0.489,735.8,01.18,0.508
2014-06-02 00:53:00,1826E-3,5C000000,-0724,0846,11973,026.5,045.4,0.489,735.8,01.18,0.508
2014-06-02 00:54:00,1905E-3,5C000000,-0724,0848,12119,026.5,045.4,0.489,735.8,01.18,0.508
2014-06-02 00:55:00,1857E-3,5C000000,-0724,0846,12060,026.6,045.5,0.489,735.8,01.18,0.508
2014-06-02 00:56:00,1796E-3,5C000000,-0724,0847,11947,026.5,045.5,0.489,735.8,01.18,0.508
2014-06-02 00:57:00,1781E-3,5C000000,-0724,0847,11929,026.5,045.5,0.489,735.8,01.18,0.508
2014-06-02 00:58:00,1966E-3,5C000000,-0724,0847,11943,026.6,045.5,0.489,735.8,01.18,0.508
2014-06-02 00:59:00,1843E-3,5C000000,-0724,0848,12099,026.6,045.5,0.489,735.8,01.18,0.508
2014-06-02 01:00:00,1764E-3,5C000000,-0724,0847,12041,026.6,045.4,0.489,735.8,01.18,0.508
2014-06-02 01:01:00,1791E-3,5C000000,-0724,0846,12086,026.6,045.5,0.489,735.8,01.18,0.508
2014-06-02 01:02:00,1741E-3,5C000000,-0724,0847,11980,026.6,045.5,0.489,735.8,01.18,0.508
2014-06-02 01:03:00,1877E-3,5C000000,-0724,0846,11830,026.6,045.5,0.489,735.8,01.18,0.508
2014-06-02 01:04:00,1973E-3,5C000000,-0724,0847,11866,026.6,045.5,0.489,735.8,01.18,0.508
2014-06-02 01:05:00,1905E-3,5C000000,-0724,0847,12186,026.6,045.4,0.489,735.8,01.18,0.508
2014-06-02 01:06:00,1915E-3,5C000000,-0724,0847,12101,026.6,045.5,0.489,735.9,01.18,0.508
2014-06-02 01:07:00,1763E-3,5C000000,-0724,0847,11867,026.6,045.4,0.489,735.9,01.18,0.508
2014-06-02 01:08:00,1925E-3,5C000000,-0724,0846,11969,026.6,045.5,0.489,735.8,01.18,0.508
2014-06-02 01:09:00,1812E-3,5C000000,-0724,0846,12068,026.6,045.4,0.489,735.9,01.18,0.508
2014-06-02 01:10:00,1730E-3,5C000000,-0724,0846,12041,026.6,045.5,0.488,735.8,01.18,0.508
2014-06-02 01:11:00,1869E-3,5C000000,-0724,0847,12122,026.6,045.5,0.489,735.8,01.18,0.508
2014-06-02 01:12:00,1842E-3,5C000000,-0724,0847,12111,026.6,045.5,0.489,735.8,01.18,0.508
2014-06-02 01:13:00,1874E-3,5C000000,-0724,0847,11947,026.6,045.4,0.489,735.8,01.18,0.508
2014-06-02 01:14:00,1813E-3,5C000000,-0724,0847,12024,026.7,045.4,0.488,735.8,01.18,0.508
2014-06-02 01:15:00,1787E-3,5C000000,-0724,0848,12176,026.7,045.5,0.489,735.8,01.18,0.508
2014-06-02 01:16:00,1768E-3,5C000000,-0724,0845,11981,026.7,045.5,0.489,735.8,01.18,0.508
2014-06-02 01:17:00,1820E-3,5C000000,-0724,0847,12182,026.7,045.5,0.489,735.8,01.18,0.508
2014-06-02 01:18:00,1776E-3,5C000000,-0724,0847,11967,026.7,045.4,0.488,735.8,01.18,0.508
2014-06-02 01:19:00,1858E-3,5C000000,-0724,0846,11969,026.7,045.4,0.489,735.8,01.18,0.508
2014-06-02 01:20:00,1801E-3,5C000000,-0724,0846,12011,026.7,045.5,0.489,735.8,01.18,0.508
2014-06-02 01:21:00,1976E-3,5C000000,-0724,0847,12070,026.7,045.5,0.489,735.8,01.18,0.508
2014-06-02 01:22:00,1832E-3,5C000000,-0724,0847,12102,026.7,045.4,0.488,735.8,01.18,0.508
2014-06-02 01:23:00,1767E-3,5C000000,-0724,0848,12078,026.7,045.4,0.489,735.8,01.18,0.508
2014-06-02 01:24:00,1824E-3,5C000000,-0724,0846,11757,026.7,045.5,0.489,735.8,01.18,0.508
2014-06-02 01:25:00,1791E-3,5C000000,-0724,0846,12033,026.7,045.5,0.489,735.8,01.18,0.508
2014-06-02 01:26:00,1792E-3,5C000000,-0724,0847,12053,026.7,045.5,0.488,735.8,01.18,0.508
2014-06-02 01:27:00,1909E-3,5C000000,-0724,0846,11986,026.7,045.5,0.489,735.8,01.18,0.508
2014-06-02 01:28:00,1895E-3,5C000000,-0724,0848,12094,026.7,045.5,0.489,735.8,01.18,0.508
2014-06-02 01:29:00,1881E-3,5C000000,-0724,0847,12012,026.7,045.5,0.489,735.8,01.18,0.508
2014-06-02 01:30:00,2006E-3,5C000000,-0724,0846,11783,026.7,045.5,0.488,735.8,01.18,0.508
2014-06-02 01:31:00,1747E-3,5C000000,-0724,0847,12105,026.7,045.5,0.489,735.8,01.18,0.508
2014-06-02 01:32:00,1852E-3,5C000000,-0724,0847,12062,026.7,045.5,0.489,735.7,01.18,0.508
2014-06-02 01:33:00,2042E-3,5C000000,-0724,0847,11935,026.7,045.4,0.488,735.7,01.18,0.508
2014-06-02 01:34:00,1784E-3,5C000000,-0724,0846,12068,026.7,045.5,0.488,735.7,01.18,0.508
2014-06-02 01:35:00,1761E-3,5C000000,-0724,0847,12174,026.7,045.5,0.489,735.7,01.18,0.508
2014-06-02 01:36:00,1913E-3,5C000000,-0724,0846,12096,026.7,045.5,0.489,735.7,01.18,0.508
2014-06-02 01:37:00,1743E-3,5C000000,-0724,0847,11943,026.7,045.5,0.488,735.7,01.18,0.508
2014-06-02 01:38:00,1961E-3,5C000000,-0724,0847,11881,026.7,045.5,0.488,735.7,01.18,0.508
2014-06-02 01:39:00,1973E-3,5C000000,-0724,0848,12200,026.7,045.5,0.489,735.7,01.18,0.508
2014-06-02 01:40:00,1821E-3,5C000000,-0724,0847,12051,026.8,045.5,0.489,735.7,01.18,0.508
2014-06-02 01:41:00,1857E-3,5C000000,-0724,0848,12034,026.8,045.5,0.489,735.6,01.18,0.508
2014-06-02 01:42:00,1972E-3,5C000000,-0724,0848,12071,026.8,045.4,0.488,735.6,01.18,0.508
2014-06-02 01:43:00,1717E-3,5C000000,-0724,0847,12097,026.8,045.4,0.489,735.6,01.18,0.508
2014-06-02 01:44:00,1873E-3,5C000000,-0724,0847,11846,026.8,045.4,0.489,735.6,01.18,0.508
2014-06-02 01:45:00,1696E-3,5C000000,-0724,0846,12052,026.8,045.5,0.488,735.7,01.18,0.508
2014-06-02 01:46:00,1868E-3,5C000000,-0724,0847,12175,026.8,045.5,0.488,735.6,01.18,0.508
2014-06-02 01:47:00,1874E-3,5C000000,-0724,0847,12146,026.8,045.5,0.488,735.6,01.18,0.508
2014-06-02 01:48:00,1909E-3,5C000000,-0724,0847,12108,026.8,045.5,0.489,735.7,01.18,0.508
2014-06-02 01:49:00,1884E-3,5C000000,-0724,0847,12249,026.8,045.5,0.488,735.7,01.18,0.508
2014-06-02 01:50:00,1843E-3,5C000000,-0724,0847,12130,026.8,045.5,0.488,735.6,01.18,0.508
2014-06-02 01:51:00,1777E-3,5C000000,-0724,0847,11943,026.8,045.5,0.488,735.6,01.18,0.508
2014-06-02 01:52:00,1855E-3,5C000000,-0724,0847,11985,026.8,045.5,0.489,735.6,01.18,0.508
2014-06-02 01:53:00,1794E-3,5C000000,-0724,0846,11993,026.8,045.5,0.489,735.6,01.18,0.508
2014-06-02 01:54:00,1899E-3,5C000000,-0724,0848,12052,026.8,045.5,0.488,735.7,01.18,0.508
2014-06-02 01:55:00,1746E-3,5C000000,-0724,0847,11796,026.8,045.4,0.488,735.6,01.18,0.508
2014-06-02 01:56:00,1787E-3,5C000000,-0724,0846,11768,026.8,045.5,0.489,735.6,01.18,0.508
2014-06-02 01:57:00,1842E-3,5C000000,-0724,0847,12156,026.8,045.4,0.489,735.7,01.18,0.508
2014-06-02 01:58:00,1923E-3,5C000000,-0724,0846,11935,026.8,045.5,0.488,735.7,01.18,0.508
2014-06-02 01:59:00,1687E-3,5C000000,-0724,0846,12105,026.8,045.5,0.488,735.6,01.18,0.508
2014-06-02 02:00:00,1816E-3,5C000000,-0724,0846,11907,026.8,045.5,0.488,735.6,01.18,0.508
2014-06-02 02:01:00,1762E-3,5C000000,-0724,0846,12211,026.8,045.5,0.489,735.6,01.18,0.508
2014-06-02 02:02:00,1836E-3,5C000000,-0724,0846,11913,026.8,045.5,0.489,735.6,01.18,0.508
2014-06-02 02:03:00,1846E-3,5C000000,-0724,0846,12118,026.8,045.5,0.488,735.6,01.18,0.508
2014-06-02 02:04:00,1894E-3,5C000000,-0724,0845,12102,026.8,045.5,0.488,735.7,01.18,0.508
2014-06-02 02:05:00,1961E-3,5C000000,-0724,0847,11982,026.8,045.5,0.489,735.7,01.18,0.508
2014-06-02 02:06:00,1795E-3,5C000000,-0724,0846,12098,026.8,045.5,0.489,735.6,01.18,0.508
2014-06-02 02:07:00,1859E-3,5C000000,-0724,0845,11891,026.8,045.5,0.488,735.7,01.18,0.508
2014-06-02 02:08:00,1810E-3,5C000000,-0724,0846,11898,026.8,045.5,0.488,735.7,01.18,0.508
2014-06-02 02:09:00,1790E-3,5C000000,-0724,0846,11955,026.8,045.5,0.488,735.7,01.18,0.508
2014-06-02 02:10:00,1860E-3,5C000000,-0724,0848,12036,026.8,045.5,0.489,735.7,01.18,0.508
2014-06-02 02:11:00,1892E-3,5C000000,-0724,0846,12175,026.8,045.5,0.489,735.7,01.18,0.508
2014-06-02 02:12:00,1831E-3,5C000000,-0724,0847,11871,026.8,045.4,0.488,735.7,01.18,0.508
2014-06-02 02:13:00,1824E-3,5C000000,-0724,0847,12106,026.9,045.5,0.488,735.7,01.18,0.508
2014-06-02 02:14:00,1761E-3,5C000000,-0724,0846,12025,026.8,045.5,0.489,735.7,01.18,0.508
2014-06-02 02:15:00,1883E-3,5C000000,-0724,0847,12218,026.9,045.5,0.489,735.8,01.18,0.508
2014-06-02 02:16:00,1968E-3,5C000000,-0724,0846,12108,026.8,045.5,0.489,735.7,01.18,0.508
2014-06-02 02:17:00,1838E-3,5C000000,-0724,0846,12018,026.8,045.5,0.488,735.7,01.18,0.508
2014-06-02 02:18:00,1729E-3,5C000000,-0724,0846,12118,026.8,045.4,0.488,735.7,01.18,0.508
2014-06-02 02:19:00,1776E-3,5C000000,-0724,0847,11911,026.8,045.4,0.489,735.7,01.18,0.508
2014-06-02 02:20:00,1847E-3,5C000000,-0724,0847,12157,026.8,045.5,0.489,735.7,01.18,0.508
2014-06-02 02:21:00,1800E-3,5C000000,-0724,0847,12080,026.9,045.5,0.488,735.8,01.18,0.508
2014-06-02 02:22:00,1924E-3,5C000000,-0724,0846,11959,026.9,045.5,0.488,735.7,01.18,0.508
2014-06-02 02:23:00,1930E-3,5C000000,-0724,0846,11901,026.9,045.5,0.488,735.8,01.18,0.508
2014-06-02 02:24:00,1778E-3,5C000000,-0724,0847,12078,026.8,045.5,0.489,735.8,01.18,0.508
2014-06-02 02:25:00,1809E-3,5C000000,-0724,0847,11857,026.8,045.5,0.489,735.8,01.18,0.508
2014-06-02 02:26:00,1795E-3,5C000000,-0724,0846,12151,026.9,045.5,0.489,735.8,01.18,0.508
2014-06-02 02:27:00,1811E-3,5C000000,-0724,0847,12033,026.9,045.5,0.488,735.8,01.18,0.508
2014-06-02 02:28:00,1753E-3,5C000000,-0724,0848,12111,026.9,045.5,0.488,735.8,01.18,0.508
2014-06-02 02:29:00,1754E-3,5C000000,-0724,0846,11956,026.9,045.5,0.489,735.8,01.18,0.508
2014-06-02 02:30:00,1915E-3,5C000000,-0724,0847,12095,026.9,045.5,0.489,735.8,01.18,0.508
2014-06-02 02:31:00,1945E-3,5C000000,-0724,0847,12102,026.9,045.5,0.489,735.8,01.18,0.508
2014-06-02 02:32:00,1823E-3,5C000000,-0724,0847,11887,026.9,045.4,0.488,735.8,01.18,0.508
2014-06-02 02:33:00,1913E-3,5C000000,-0724,0846,11905,026.9,045.4,0.488,735.9,01.18,0.508
2014-06-02 02:34:00,1914E-3,5C000000,-0724,0846,11989,026.9,045.5,0.488,735.8,01.18,0.508
2014-06-02 02:35:00,1822E-3,5C000000,-0724,0846,11845,026.9,045.5,0.489,735.8,01.18,0.508
2014-06-02 02:36:00,1795E-3,5C000000,-0724,0848,11926,026.9,045.5,0.489,735.8,01.18,0.508
2014-06-02 02:37:00,1742E-3,5C000000,-0724,0846,11968,026.9,045.5,0.488,735.9,01.18,0.508
2014-06-02 02:38:00,1897E-3,5C000000,-0724,0847,12118,026.9,045.5,0.488,735.9,01.18,0.508
2014-06-02 02:39:00,1781E-3,5C000000,-0724,0847,12129,026.9,045.5,0.489,735.8,01.18,0.508
2014-06-02 02:40:00,1822E-3,5C000000,-0724,0847,12157,026.9,045.5,0.489,735.8,01.18,0.508
2014-06-02 02:41:00,1758E-3,5C000000,-0724,0847,12024,026.9,045.4,0.489,735.8,01.18,0.508
2014-06-02 02:42:00,1722E-3,5C000000,-0724,0847,12146,026.9,045.5,0.488,735.9,01.18,0.508
2014-06-02 02:43:00,1880E-3,5C000000,-0724,0847,11837,026.9,045.5,0.488,735.9,01.18,0.508
2014-06-02 02:44:00,1896E-3,5C000000,-0724,0847,12064,026.9,045.5,0.488,735.8,01.18,0.508
2014-06-02 02:45:00,1879E-3,5C000000,-0724,0849,12083,026.9,045.4,0.489,735.9,01.18,0.508
2014-06-02 02:46:00,1857E-3,5C000000,-0724,0847,11962,026.9,045.5,0.489,735.9,01.18,0.508
2014-06-02 02:47:00,1863E-3,5C000000,-0724,0846,11925,026.9,045.5,0.488,735.9,01.18,0.508
2014-06-02 02:48:00,1780E-3,5C000000,-0724,0847,12139,026.9,045.5,0.488,735.9,01.18,0.508
2014-06-02 02:49:00,1801E-3,5C000000,-0724,0847,12118,026.9,045.5,0.488,735.9,01.18,0.508
2014-06-02 02:50:00,1836E-3,5C000000,-0724,0847,12049,026.9,045.5,0.489,735.9,01.18,0.508
2014-06-02 02:51:00,1843E-3,5C000000,-0724,0847,12110,026.9,045.5,0.489,735.9,01.18,0.508
2014-06-02 02:52:00,1826E-3,5C000000,-0724,0847,11987,026.9,045.4,0.488,735.9,01.18,0.508
2014-06-02 02:53:00,1889E-3,5C000000,-0724,0846,12051,026.9,045.5,0.488,735.9,01.18,0.508
2014-06-02 02:54:00,1717E-3,5C000000,-0724,0847,12112,026.9,045.5,0.488,736.0,01.18,0.508
2014-06-02 02:55:00,1835E-3,5C000000,-0724,0846,12105,026.9,045.5,0.489,735.9,01.18,0.508
2014-06-02 02:56:00,1912E-3,5C000000,-0724,0847,11960,026.9,045.5,0.489,735.9,01.18,0.508
2014-06-02 02:57:00,1905E-3,5C000000,-0724,0846,12019,026.9,045.5,0.488,735.9,01.18,0.508
2014-06-02 02:58:00,1872E-3,5C000000,-0724,0847,11979,026.9,045.5,0.488,735.9,01.18,0.508
2014-06-02 02:59:00,1795E-3,5C000000,-0724,0846,11869,026.9,045.5,0.488,735.9,01.18,0.508
2014-06-02 03:00:00,1860E-3,5C000000,-0724,0847,12068,027.0,045.5,0.488,735.9,01.18,0.508
2014-06-02 03:01:00,1825E-3,5C000000,-0724,0846,11697,026.9,045.5,0.489,735.9,01.18,0.508
2014-06-02 03:02:00,1897E-3,5C000000,-0724,0845,12065,027.0,045.5,0.488,736.0,01.18,0.508
2014-06-02 03:03:00,1736E-3,5C000000,-0724,0847,12184,026.9,045.5,0.489,735.9,01.18,0.508
2014-06-02 03:04:00,1798E-3,5C000000,-0724,0847,11830,026.9,045.4,0.489,735.9,01.18,0.508
2014-06-02 03:05:00,1700E-3,5C000000,-0724,0846,12032,027.0,045.5,0.489,735.9,01.18,0.508
2014-06-02 03:06:00,1872E-3,5C000000,-0724,0847,11918,027.0,045.5,0.488,736.0,01.18,0.508
2014-06-02 03:07:00,1789E-3,5C000000,-0724,0847,11999,027.0,045.5,0.488,736.0,01.18,0.508
2014-06-02 03:08:00,1774E-3,5C000000,-0724,0847,11947,027.0,045.5,0.488,735.9,01.18,0.508
2014-06-02 03:09:00,1798E-3,5C000000,-0724,0847,12009,027.0,045.5,0.488,736.0,01.18,0.508
2014-06-02 03:10:00,1811E-3,5C000000,-0724,0846,11966,027.0,045.5,0.488,736.0,01.18,0.508
2014-06-02 03:11:00,1732E-3,5C000000,-0724,0847,11971,026.9,045.5,0.489,736.0,01.18,0.508
2014-06-02 03:12:00,1723E-3,5C000000,-0724,0847,11993,027.0,045.5,0.489,736.0,01.18,0.508
2014-06-02 03:13:00,1868E-3,5C000000,-0724,0847,12074,027.0,045.5,0.488,736.0,01.18,0.508
2014-06-02 03:14:00,1879E-3,5C000000,-0724,0847,12048,027.0,045.5,0.488,736.0,01.18,0.508
2014-06-02 03:15:00,1801E-3,5C000000,-0724,0847,11944,027.0,045.5,0.488,735.9,01.18,0.508
2014-06-02 03:16:00,1739E-3,5C000000,-0724,0846,12070,027.0,045.5,0.488,736.0,01.18,0.508
2014-06-02 03:17:00,1832E-3,5C000000,-0724,0846,12169,027.0,045.5,0.488,735.9,01.18,0.508
2014-06-02 03:18:00,1898E-3,5C000000,-0724,0847,12079,027.0,045.5,0.489,736.0,01.18,0.508
2014-06-02 03:19:00,1911E-3,5C000000,-0724,0847,12085,027.0,045.5,0.489,736.0,01.18,0.508
2014-06-02 03:20:00,1970E-3,5C000000,-0724,0847,11834,027.0,045.5,0.488,736.0,01.18,0.508
2014-06-02 03:21:00,1825E-3,5C000000,-0724,0847,12002,027.0,045.5,0.488,736.0,01.18,0.508
2014-06-02 03:22:00,1860E-3,5C000000,-0724,0846,12126,027.0,045.5,0.488,736.0,01.18,0.508
2014-06-02 03:23:00,1870E-3,5C000000,-0724,0847,12008,027.0,045.5,0.488,736.0,01.18,0.508
2014-06-02 03:24:00,1818E-3,5C000000,-0724,0846,12048,027.0,045.5,0.488,735.9,01.18,0.508
2014-06-02 03:25:00,1801E-3,5C000000,-0724,0847,12011,027.0,045.5,0.489,736.0,01.18,0.508
2014-06-02 03:26:00,1843E-3,5C000000,-0724,0846,12025,027.0,045.5,0.489,736.0,01.18,0.508
2014-06-02 03:27:00,1889E-3,5C000000,-0724,0847,12165,027.0,045.5,0.488,736.0,01.18,0.508
2014-06-02 03:28:00,1788E-3,5C000000,-0724,0848,12048,027.0,045.5,0.488,736.0,01.18,0.508
2014-06-02 03:29:00,1866E-3,5C000000,-0724,0846,12121,027.0,045.5,0.488,736.0,01.18,0.508
2014-06-02 03:30:00,1799E-3,5C000000,-0724,0847,11990,027.0,045.4,0.488,736.0,01.18,0.508
2014-06-02 03:31:00,1775E-3,5C000000,-0724,0846,11953,027.0,045.5,0.488,736.0,01.18,0.508
2014-06-02 03:32:00,1753E-3,5C000000,-0724,0846,12114,027.0,045.5,0.489,736.0,01.18,0.508
2014-06-02 03:33:00,1936E-3,5C000000,-0724,0846,12110,027.0,045.5,0.489,736.0,01.18,0.508
2014-06-02 03:34:00,1882E-3,5C000000,-0724,0846,11990,027.0,045.5,0.488,736.0,01.18,0.508
2014-06-02 03:35:00,1889E-3,5C000000,-0724,0847,12080,027.0,045.5,0.488,736.0,01.18,0.508
2014-06-02 03:36:00,1733E-3,5C000000,-0724,0847,12057,027.0,045.5,0.488,736.0,01.18,0.508
2014-06-02 03:37:00,1874E-3,5C000000,-0724,0846,11979,027.0,045.5,0.488,736.0,01.18,0.508
2014-06-02 03:38:00,1700E-3,5C000000,-0724,0846,12036,027.0,045.5,0.488,736.0,01.18,0.508
2014-06-02 03:39:00,1887E-3,5C000000,-0724,0847,11950,027.0,045.5,0.488,736.0,01.18,0.508
2014-06-02 03:40:00,1797E-3,5C000000,-0724,0846,11832,027.0,045.5,0.488,736.0,01.18,0.508
2014-06-02 03:41:00,1774E-3,5C000000,-0724,0847,12144,027.0,045.5,0.489,736.0,01.18,0.508
2014-06-02 03:42:00,1951E-3,5C000000,-0724,0847,12135,027.0,045.5,0.488,736.0,01.18,0.508
2014-06-02 03:43:00,1887E-3,5C000000,-0724,0847,12187,027.0,045.5,0.488,736.0,01.18,0.508
2014-06-02 03:44:00,1852E-3,5C000000,-0724,0846,11935,027.0,045.5,0.488,736.1,01.18,0.508
2014-06-02 03:45:00,1829E-3,5C000000,-0724,0847,12230,027.0,045.5,0.488,736.0,01.18,0.508
2014-06-02 03:46:00,1837E-3,5C000000,-0724,0847,12115,027.0,045.5,0.488,736.0,01.18,0.508
2014-06-02 03:47:00,1746E-3,5C000000,-0724,0846,12195,027.0,045.5,0.488,736.0,01.18,0.508
2014-06-02 03:48:00,1786E-3,5C000000,-0724,0847,11884,027.1,045.5,0.488,736.0,01.18,0.508
2014-06-02 03:49:00,1844E-3,5C000000,-0724,0847,11841,027.0,045.5,0.488,735.9,01.18,0.508
2014-06-02 03:50:00,1811E-3,5C000000,-0724,0846,11924,027.0,045.5,0.489,735.9,01.18,0.508
2014-06-02 03:51:00,1860E-3,5C000000,-0724,0848,11945,027.1,045.5,0.489,735.9,01.18,0.508
2014-06-02 03:52:00,1886E-3,5C000000,-0724,0847,12095,027.0,045.5,0.488,735.9,01.18,0.508
2014-06-02 03:53:00,1839E-3,5C000000,-0724,0847,12129,027.1,045.5,0.488,736.0,01.18,0.508
2014-06-02 03:54:00,1918E-3,5C000000,-0724,0846,12110,027.1,045.5,0.488,735.9,01.18,0.508
2014-06-02 03:55:00,1919E-3,5C000000,-0724,0847,12012,027.1,045.5,0.488,735.8,01.18,0.508
2014-06-02 03:56:00,1874E-3,5C000000,-0724,0846,12053,027.1,045.5,0.488,735.8,01.18,0.508
2014-06-02 03:57:00,1819E-3,5C000000,-0724,0846,11811,027.1,045.5,0.488,735.8,01.18,0.508
2014-06-02 03:58:00,1790E-3,5C000000,-0724,0847,12026,027.1,045.5,0.488,735.7,01.18,0.508
2014-06-02 03:59:00,1839E-3,5C000000,-0724,0846,11799,027.1,045.5,0.488,735.7,01.18,0.508
2014-06-02 04:00:00,1850E-3,5C000000,-0724,0847,11991,027.1,045.5,0.488,735.7,01.18,0.508
2014-06-02 04:01:00,1856E-3,5C000000,-0724,0846,12141,027.1,045.5,0.488,735.8,01.18,0.508
2014-06-02 04:02:00,1913E-3,5C000000,-0724,0846,12094,027.1,045.5,0.488,735.8,01.18,0.508
2014-06-02 04:03:00,1711E-3,5C000000,-0724,0846,12050,027.1,045.5,0.488,735.8,01.18,0.508
2014-06-02 04:04:00,1880E-3,5C000000,-0724,0846,12167,027.1,045.5,0.488,735.8,01.18,0.508
2014-06-02 04:05:00,1770E-3,5C000000,-0724,0846,12000,027.1,045.5,0.488,735.8,01.18,0.508
2014-06-02 04:06:00,1877E-3,5C000000,-0724,0847,12107,027.1,045.5,0.488,735.8,01.18,0.508
2014-06-02 04:07:00,1810E-3,5C000000,-0724,0846,11884,027.1,045.5,0.488,735.8,01.18,0.508
2014-06-02 04:08:00,1850E-3,5C000000,-0724,0846,11972,027.1,045.5,0.488,735.7,01.18,0.508
2014-06-02 04:09:00,1857E-3,5C000000,-0724,0847,11915,027.1,045.5,0.488,735.8,01.18,0.508
2014-06-02 04:10:00,1794E-3,5C000000,-0724,0847,12135,027.1,045.5,0.488,735.7,01.18,0.508
2014-06-02 04:11:00,1797E-3,5C000000,-0724,0847,12015,027.1,045.5,0.488,735.6,01.18,0.508
2014-06-02 04:12:00,1858E-3,5C000000,-0724,0846,12186,027.1,045.5,0.488,735.7,01.18,0.508
2014-06-02 04:13:00,1842E-3,5C000000,-0724,0847,12065,027.1,045.5,0.488,735.7,01.18,0.508
2014-06-02 04:14:00,1867E-3,5C000000,-0724,0848,12244,027.1,045.5,0.488,735.7,01.18,0.508
2014-06-02 04:15:00,1831E-3,5C000000,-0724,0847,11873,027.1,045.5,0.488,735.7,01.18,0.508
2014-06-02 04:16:00,1838E-3,5C000000,-0724,0848,12034,027.1,045.5,0.488,735.7,01.18,0.508
2014-06-02 04:17:00,1822E-3,5C000000,-0724,0847,11911,027.2,045.5,0.488,735.7,01.18,0.508
2014-06-02 04:18:00,1710E-3,5C000000,-0724,0847,11983,027.2,045.5,0.488,735.8,01.18,0.508
2014-06-02 04:19:00,1821E-3,5C000000,-0724,0847,12102,027.2,045.5,0.488,735.8,01.18,0.508
2014-06-02 04:20:00,1856E-3,5C000000,-0724,0846,12008,027.1,045.5,0.488,735.8,01.18,0.508